Location: Kielce
(50.8833°N, 20.6167°E)
Time: 17:22:42
(UTC+02:00)

Explorer 7 - Visible Passes

Search period start: 11 April 2021 00:00
Search period end: 21 April 2021 00:00
Orbit: 484 x 677 km, 50.3° (Epoch: 10 April)

Date Brightness Start Highest point End Pass type
(mag) Time Alt. Az. Time Alt. Az. Time Alt. Az.
11 Apr 9.6 01:22:56 14° E 01:22:56 14° E 01:23:41 10° E visible
11 Apr 7.0 02:59:13 77° WSW 02:59:31 85° S 03:04:23 10° E visible
11 Apr 7.3 04:35:29 10° W 04:40:04 60° SSW 04:44:53 10° ESE visible
12 Apr 9.4 01:27:05 17° E 01:27:05 17° E 01:28:10 10° E visible
12 Apr 7.0 03:03:21 66° W 03:04:00 83° S 03:08:52 10° E visible
12 Apr 7.5 04:39:54 10° W 04:44:28 48° SSW 04:49:10 10° SE visible
13 Apr 9.2 01:31:18 19° E 01:31:18 19° E 01:32:38 10° E visible
13 Apr 7.0 03:07:35 57° W 03:08:29 77° S 03:13:20 10° ESE visible
13 Apr 7.8 04:44:26 10° W 04:48:49 38° SSW 04:53:18 10° SE visible
14 Apr 9.1 01:35:39 20° E 01:35:39 20° E 01:37:08 10° E visible
14 Apr 7.0 03:11:56 52° WSW 03:12:56 68° SSW 03:17:44 10° ESE visible
14 Apr 8.1 04:49:03 10° W 04:53:07 29° SW 04:57:16 10° SSE visible
15 Apr 9.1 01:40:13 19° E 01:40:13 19° E 01:41:37 10° E visible
15 Apr 7.1 03:16:32 49° WSW 03:17:21 57° SSW 03:22:05 10° ESE visible
15 Apr 8.5 04:53:49 10° W 04:57:21 21° SW 05:00:58 10° S visible
16 Apr 9.3 01:45:06 16° E 01:45:06 16° E 01:46:06 10° E visible
16 Apr 7.4 03:21:26 44° SW 03:21:44 45° SSW 03:26:20 10° SE visible
16 Apr 8.8 04:58:54 10° WSW 05:01:33 15° SW 05:04:14 10° S visible
17 Apr 9.7 01:50:30 10° ESE 01:50:30 10° ESE 01:50:32 10° ESE visible
17 Apr 7.9 03:26:53 32° S 03:26:53 32° S 03:30:26 10° SSE visible
17 Apr 8.5 20:47:09 10° S 20:49:23 15° SE 20:49:23 15° SE visible
17 Apr 9.1 22:25:16 10° SW 22:25:50 14° SW 22:25:50 14° SW visible
18 Apr 8.9 03:32:59 16° S 03:32:59 16° S 03:34:19 10° SSE visible
18 Apr 8.1 20:50:37 10° SSW 20:53:46 22° SE 20:55:39 16° ESE visible
18 Apr 7.9 22:29:33 10° WSW 22:32:03 34° SW 22:32:03 34° SW visible
19 Apr 7.7 20:54:26 10° SSW 20:58:00 30° SSE 21:01:13 13° E visible
19 Apr 7.0 22:33:57 10° WSW 22:37:35 63° SW 22:37:35 63° SW visible
20 Apr 7.3 20:58:30 10° SW 21:02:18 40° SSE 21:06:15 11° E visible
20 Apr 6.7 22:38:22 10° W 22:42:35 81° S 22:42:35 81° S visible
